This is the latest recevied weather packets stored in our database for station/object KN6KS. If no packets are shown the sender has not sent any weather packets the latest 10 day(s).
| Time | Temp. | Humidity | Pressure | Rain* | Wind** | Luminosity | Snow |
|---|---|---|---|---|---|---|---|
| 1777919593 | 13.89° C | 53% | 1013.2 hPa | 0 mm | - | 239 W/m² | - |
| 1777919290 | 13.89° C | 52% | 1013.2 hPa | 0 mm | - | 225 W/m² | - |
| 1777918988 | 13.89° C | 52% | 1013.2 hPa | 0 mm | - | 212 W/m² | - |
| 1777918685 | 13.89° C | 51% | 1013.1 hPa | 0 mm | - | 309 W/m² | - |
| 1777918382 | 13.89° C | 52% | 1013.2 hPa | 0 mm | - | 730 W/m² | - |
| 1777918081 | 13.89° C | 52% | 1013.1 hPa | 0 mm | - | 699 W/m² | - |
| 1777917779 | 13.89° C | 54% | 1013.1 hPa | 0 mm | - | 160 W/m² | - |
| 1777917477 | 13.89° C | 54% | 1013 hPa | 0 mm | - | 152 W/m² | - |
| 1777917173 | 13.33° C | 55% | 1013 hPa | 0 mm | - | 254 W/m² | - |
| 1777916871 | 13.89° C | 55% | 1013.1 hPa | 0 mm | - | 452 W/m² | - |
| 1777916569 | 13.33° C | 54% | 1013.1 hPa | 0 mm | - | 793 W/m² | - |
| 1777916265 | 13.33° C | 55% | 1013.1 hPa | 0 mm | - | 794 W/m² | - |
| 1777915962 | 13.33° C | 55% | 1012.9 hPa | 0 mm | - | 882 W/m² | - |
| 1777915659 | 13.33° C | 58% | 1013.1 hPa | 0 mm | - | 782 W/m² | - |
| 1777915356 | 13.33° C | 58% | 1012.8 hPa | 0 mm | - | 779 W/m² | - |
| 1777915052 | 13.33° C | 57% | 1012.9 hPa | 0 mm | - | 385 W/m² | - |
| 1777914749 | 13.33° C | 56% | 1013 hPa | 0 mm | - | 787 W/m² | - |
| 1777914446 | 13.33° C | 58% | 1013 hPa | 0 mm | - | 793 W/m² | - |
| 1777914143 | 12.78° C | 59% | 1012.9 hPa | 0 mm | - | 808 W/m² | - |
| 1777913839 | 12.78° C | 61% | 1013.1 hPa | 0 mm | - | 222 W/m² | - |
| 1777913535 | 12.78° C | 61% | 1012.9 hPa | 0 mm | - | 342 W/m² | - |
| 1777913232 | 12.22° C | 63% | 1012.9 hPa | 0 mm | - | 501 W/m² | - |
| 1777912930 | 12.22° C | 65% | 1012.9 hPa | 0 mm | - | 162 W/m² | - |
| 1777912625 | 12.22° C | 65% | 1013 hPa | 0 mm | - | 161 W/m² | - |
| 1777912321 | 12.22° C | 65% | 1012.9 hPa | 0 mm | - | 155 W/m² | - |
* Rain latest hour (hover to see other rain measurements)
** Current wind speed in m/s (hover to see current wind gust speed)